Regional Weather Roundup
Issued by NWS

Home | Current Version | Previous Version | Text Only | Print | Product List | Glossary Off
Versions: 1 2 3 4 5 6 7 8 9 10 11 12 13 14 15 16 17 18 19 20 21 22 23 24 25 26 27 28 29 30 31 32 33 34 35 36 37 38 39 40 41 42 43 44 45 46 47 48 49 50

894
ASUS43 KDMX 091403
RWRIA

WEATHER ROUNDUP FOR IOWA
NATIONAL WEATHER SERVICE DES MOINES IA
800 AM CST TUE FEB 09 2016

NOTE: "FAIR" INDICATES FEW OR NO CLOUDS BELOW 12,000 FEET WITH NO
SIGNIFICANT WEATHER AND/OR OBSTRUCTIONS TO VISIBILITY.

* - THESE STATIONS ARE NOT NWS STATIONS...THUS NOT UNDER NWS
QUALITY CONTROL.  THEY ALSO DO NOT REPORT WEATHER SUCH
AS PRECIPITATION OR FOG.

IAZ001>003-012>014-020>022-031>034-043>046-091500-
   NORTHWEST IOWA

CITY           SKY/WX    TMP DP  RH WIND       PRES   REMARKS
CARROLL *      PTCLDY     5   0  78 NW23      30.14R WCI -17
CHEROKEE *     CLEAR      5   1  85 N15G21    30.18R WCI -13
DENISON *      CLOUDY     7   1  78 N17G25    30.14S WCI -12
LE MARS *      CLEAR      9   3  78 NW16      30.24R WCI  -9
ORANGE CITY *  CLEAR      7   1  78 NW15G22   30.19R WCI -11
SHELDON *      CLEAR      3   0  85 NW17G24   30.16R WCI -17
SIOUX CITY     CLEAR     11   2  67 NW24      30.22R WCI  -9
SPENCER        MOCLDY     5  -2  72 N21       30.15R WCI -16
STORM LAKE *   CLOUDY     5   0  78 NW18G25   30.14R WCI -15
$$

IAZ055>058-069>071-079>083-090>094-091500-
   SOUTHWEST IOWA

CITY           SKY/WX    TMP DP  RH WIND       PRES   REMARKS
ATLANTIC *     MOCLDY     9   1  72 N16G25    30.16R WCI  -9
AUDUBON *      CLEAR      7   1  78 NW16G24   30.13S WCI -11
CLARINDA *     MOCLDY    12   5  73 N17G26    30.19R WCI  -5
COUNCIL BLFS * CLEAR     12   5  73 N16G28    30.18R WCI  -4
CRESTON *      PTCLDY     7   1  78 NW20G25   30.10S WCI -13
HARLAN  *      CLOUDY     9   1  72 N17G25    30.19R WCI -10
LAMONI         CLOUDY    11   4  73 NW16      30.08R WCI  -6
RED OAK *      CLOUDY    10   3  72 N21G26    30.18R WCI  -9
SHENANDOAH *   CLOUDY    14   7  73 N14G22    30.19R WCI  -1
$$

IAZ047>049-059>061-072>074-084-091500-
   CENTRAL IOWA

CITY           SKY/WX    TMP DP  RH WIND       PRES   REMARKS
AMES           CLOUDY     8   3  80 NW22      30.08R HAZE    WCI -12
ANKENY *       CLOUDY    10   3  72 N18G25    30.09S WCI  -8
BOONE *        CLOUDY     7   0  72 NW24G31   30.06S WCI -15
CHARITON *     FLURRIES  10   5  79 NW17      30.07R WCI  -7
DES MOINES     MOCLDY    10   2  69 N16       30.10R WCI  -7
GRINNELL*      LGT SNOW  10   6  84 NW20G28   30.04R WCI  -9
KNOXVILLE *    MOCLDY    10   3  72 NW20G29   30.06R WCI  -8
MARSHALLTOWN   CLOUDY     8   3  80 NW21G28   30.04R WCI -12
NEWTON *       FLURRIES   9   5  85 NW18G26   30.06R WCI -10
PELLA *        MOCLDY    10   5  79 NW22      30.08R WCI  -9
$$

IAZ004>006-015-016-023>025-035-036-091500-
   NORTH CENTRAL IOWA

CITY           SKY/WX    TMP DP  RH WIND       PRES   REMARKS
ALGONA *       PTCLDY     5   1  85 NW22G28   30.09R WCI -16
CLARION *      PTCLDY     5   0  78 NW25G32   30.06S WCI -18
ESTHERVILLE    PTCLDY     3  -1  83 NW22      30.12R WCI -19
FORT DODGE *   CLEAR      7  -2  66 NW14G21   30.11R WCI -10
MASON CITY     CLOUDY     5   0  79 NW25      30.05R WCI -18
FOREST CITY *  CLEAR      5   1  85 NW23      30.05R WCI -17
WEBSTER CITY * MOCLDY     5   0  78 NW24      30.07R WCI -17
IOWA FALLS *     N/A      7   2  80 NW28      30.04S WCI -15
$$

IAZ007>011-017>019-026>030-037>042-050>054-066-091500-
   NORTHEAST IOWA

CITY           SKY/WX    TMP DP  RH WIND       PRES   REMARKS
CEDAR RAPIDS   LGT SNOW  11   7  84 NW16      29.97R FOG     WCI  -6
CHARLES CITY * CLOUDY     7   1  78 NW20G26   30.01R WCI -13
CLINTON *      PTCLDY    11   5  77 N16       29.93R WCI  -6
DECORAH *      CLOUDY     7   0  72 NW15G22   29.95R WCI -11
DUBUQUE        MOCLDY     9   2  73 N15       29.91R WCI  -8
MONTICELLO *   MOCLDY    12   3  67 NW21      29.95R WCI  -6
OELWEIN *      MOCLDY     9   3  78 N14G22    29.98R WCI  -8
WATERLOO       MOCLDY     8   3  80 NW20      30.01R WCI -11
$$

IAZ064-065-067-068-078-091500-
   EAST CENTRAL IOWA

CITY           SKY/WX    TMP DP  RH WIND       PRES   REMARKS
DAVENPORT      CLEAR     11   3  70 NW15      29.94R WCI  -5
IOWA CITY      MIX PCPN  13   3  64 NW20G35   30.00R WCI  -5
MT. PLEASANT * FLURRIES  18  10  73 NW15G24   29.98R WCI   3
MUSCATINE *    CLOUDY    14   7  73 NW15G24   29.99R WCI  -1
QUAD CITIES    PTCLDY    13   3  64 NW15G25   29.94R WCI  -3
$$

IAZ062-063-075>077-085>089-095>099-091500-
   SOUTHEAST IOWA

CITY           SKY/WX    TMP DP  RH WIND       PRES   REMARKS
BURLINGTON     CLOUDY    14   6  70 N15G25    29.96R WCI  -1
FAIRFIELD *    CLOUDY    12   5  73 NW17G24   30.00R WCI  -5
FORT MADISON * CLOUDY    16   9  73 NW18G26   29.97R WCI  -1
KEOKUK *       CLOUDY    16  10  79 NW14      29.98R WCI   1
OSKALOOSA *    LGT SNOW  12   9  85 NW21G28   30.04R WCI  -6
OTTUMWA        CLOUDY    13   7  77 NW22G30   30.03R WCI  -6
WASHINGTON *   CLOUDY    12   7  79 NW20G30   30.01R WCI  -6
$$

ABBREVIATIONS USED IN REMARKS
   TC - TEMPERATURES IN CELSIUS
  WCI - WIND CHILL INDEX
   HX - HEAT INDEX
  VSB - VISIBILITY
$$





USA.gov is the U.S. government's official web portal to all federal, state and local government web resources and services.